Regional Weather Roundup
Issued by NWS

Home | Current Version | Previous Version | Graphics & Text | Print | Product List | Glossary On
Versions: 1 2 3 4 5 6 7 8 9 10 11 12 13 14 15 16 17 18 19 20 21 22 23 24 25 26 27 28 29 30 31 32 33 34 35 36 37 38 39 40 41 42 43 44 45 46 47 48 49 50
000
ASUS43 KBIS 021010
RWRND

NORTH DAKOTA REGIONAL WEATHER ROUNDUP
NATIONAL WEATHER SERVICE BISMARCK ND
500 AM CDT THU APR 02 2015

NOTE: "FAIR" INDICATES FEW OR NO CLOUDS BELOW 12,000 FEET WITH NO
SIGNIFICANT WEATHER AND/OR OBSTRUCTIONS TO VISIBILITY.


NDZ001>003-009>011-017-021100-
NORTHWEST NORTH DAKOTA

CITY           SKY/WX    TMP DP  RH WIND       PRES   REMARKS
WILLISTON      CLOUDY    38  24  57 W26G36    29.65R
MINOT          CLEAR     39  23  52 SW22G29   29.58R
MINOT AFB      CLEAR     37  26  62 W23G33    29.55F
$$

NDZ018>021-031>035-040>046-021100-
SOUTHWEST NORTH DAKOTA

CITY           SKY/WX    TMP DP  RH WIND       PRES   REMARKS
BISMARCK       CLEAR     35  20  54 SW8       29.71S
DICKINSON      CLEAR     35  19  52 W24G32    29.71R
GARRISON         N/A     36  24  62 W16       29.63R
HETTINGER ARPT CLEAR     35  16  45 W21G29    29.78S
$$

NDZ004>008-012>016-024-026-027-054-021100-
NORTHEAST NORTH DAKOTA

CITY           SKY/WX    TMP DP  RH WIND       PRES   REMARKS
GRAND FORKS    CLEAR     36  27  69 SW13      29.59F
GRND FRKS AFB  CLEAR     33  25  72 SW7       29.59F
DEVILS LAKE    CLEAR     37  25  60 SW17      29.56F
$$

NDZ022-023-025-028>030-036>039-047>053-021100-
SOUTHEAST NORTH DAKOTA

CITY           SKY/WX    TMP DP  RH WIND       PRES   REMARKS
FARGO          CLEAR     38  26  62 SW13      29.67S
JAMESTOWN      CLEAR     37  24  59 SW13      29.66F
$$




USA.gov is the U.S. government's official web portal to all federal, state and local government web resources and services.